Погода в Батьках

Россия / Рязанская область     54°16′04″N   42°02′59″E
темп.,
°C
ветер,
м/с
пор.,
м/с
влажн.,
%
обл.,
%
осадки,
мм/ч
давл.,
гПа
погр.,
м
6 мая, чт
чт600:00+10юз5147488 0.0 1012353
03:00+7ююз4128645 0.0 1013236
06:00+8ю51186100 0.0 1013250
09:00+13ююз71371100 0.0 1013530
12:00+16ююз81162100 0.0 10131110
15:00+16ююз81261100 0.0 10121757
18:00+14ююз71365100 0.0 1011772
21:00+12ю6147094 0.0 1011460
7 мая, пт
пт700:00+11ююз6147397 0.0 1010510
03:00+9зюз3691100 0.0 1011259
06:00+8з3695100 2.8 1013382
09:00+11зюз457546 3.5 10141067
12:00+13з56505 0.3 10151668
15:00+14з45455 0.3 10162026
18:00+13з23595 0.0 1016161
21:00+9юв11625 0.0 101710
8 мая, сб
сб800:00+7юв347089 0.0 101762
03:00+5ююв377799 0.0 101799
06:00+7ююв4128487 0.0 1016302
09:00+13ююв71165100 0.0 1013822
12:00+15ююв81459100 0.0 10111160
15:00+14ююв71380100 0.1 1009753
18:00+13ююз71685100 0.3 1008869
21:00+12ююз71492100 2.3 1007877
9 мая, вс
вс900:00+9з51094100 5.2 1009622
03:00+7з6991100 6.3 1011547
06:00+6зсз4790100 0.4 1014599
09:00+8зсз4575100 0.4 1015920
12:00+11ссз446099 0.0 10171377
15:00+10с5564100 0.1 10181177
18:00+9ссв2576100 0.1 1020564
21:00+8св3582100 0.3 1022158
10 мая, пн
пн1000:00+6ссв498971 0.0 1023201
03:00+4с4992100 0.0 1025211
06:00+6ссв51287100 0.0 1026435
09:00+10св69715 0.0 1027854
12:00+14св675849 0.0 10271386
15:00+12вюв4672100 0.0 1027379
18:00+12всв367466 0.0 1028352
21:00+10всв387877 0.0 1029230